Find Early Bird

NORAD ID: 1317 Int'l Des: 1965-028 Owner: INTEL Country: I-INT operational
HEOCIRCULAR

Current View

Loading 3D Globe...

About Early Bird

Description loading...

Upcoming Passes

Passes for default location (London). Set your location on the main map for personalized predictions.

Altitude History

Loading altitude history...

Two-Line Element Set

1 1317U 65028A 26149.51759512 .00000010 00000-0 00000+0 0 9990
2 1317 7.1124 63.9215 0005384 147.3802 103.9254 1.00181681126986
Epoch: May 29, 2026 • Age: 23 hours

Current Status

Altitude 35810.8 km
Velocity 3.07 km/s
Sub-Earth Point -5.78°S, 118.6°W
Type other

Most Searched